[Iaude] MPEC D53: 2015 RG36 [a=1.48,e=0.27,i=9.2,H=20.3]

mpec at mpcdb1.cfa.harvard.edu mpec at mpcdb1.cfa.harvard.edu
Sat Feb 24 15:13:17 EST 2018


M.P.E.C. 2018-D53                                Issued 2018 Feb. 24, 20:09 UT
 
     The Minor Planet Electronic Circulars contain information on unusual
         minor planets and routine data on comets.  They are published
    on behalf of Division F of the International Astronomical Union by the
          Minor Planet Center, Smithsonian Astrophysical Observatory,
                          Cambridge, MA 02138, U.S.A.

             Prepared using the Tamkin Foundation Computer Network

                              MPC at CFA.HARVARD.EDU
            URL https://www.minorplanetcenter.net/    ISSN 1523-6714


                                   2015 RG36
 
                           Revision to MPEC 2015-R98
 
Additional Observations:
     K15R36G |C2018 01 25.30456 13 44 22.68 +03 16 48.1          22.1 GUED053807
     K15R36G |C2018 01 25.31485 13 44 23.30 +03 16 45.8          22.3 GUED053807
     K15R36G |C2018 01 25.32466 13 44 23.89 +03 16 43.7          22.1 GUED053807
     K15R36G |C2018 02 24.31825 13 54 33.86 +02 45 01.6          22.1 GUED053807
     K15R36G |C2018 02 24.32425 13 54 33.66 +02 45 01.8          22.1 GUED053807
     K15R36G |C2018 02 24.33008 13 54 33.42 +02 45 02.4          22.1 GUED053807
 
Observer details:
807 Cerro Tololo.  Observers T. Linder, R. Holmes.  0.61-m f/6.5 astrograph
    + CCD.
 
First and last observations above in comparison with prediction:
Residuals in seconds of arc, reference and Delta-T
180125 807 19.5+ 19.9-    180224 807 30.6+ 25.6-    MPO369262   -0.011 day
 
Orbital elements:
2015 RG36                                                Earth MOID = 0.0988 AU
Epoch 2018 Mar. 23.0 TT = JDT 2458200.5                 MPC
M 100.10034              (2000.0)            P               Q
n   0.54992520     Peri.   21.14554     +0.49904173     -0.86073746
a   1.4754810      Node    39.10960     +0.77047334     +0.38765533
e   0.2671047      Incl.    9.16200     +0.39664617     +0.32993086
P   1.79           H   20.3           G   0.15           U   1
Residuals in seconds of arc
150911 Q60  0.2-  0.9+    151021 807  0.1-  0.1-    151114 H21  0.2+  0.0
150911 Q60  1.0-  0.3-    151021 807  0.2-  0.1-    151114 H21  0.1+  0.2-
150911 Q60  0.4-  0.3-    151021 807  0.2-  0.1-    151114 H21  0.1+  0.0
150911 Q60  0.2-  0.3-    151021 807  0.0   0.1-    151114 G45  0.1-  0.5+
150911 Q60  0.0   0.1-    151030 807  0.0   0.1+    151114 G45  0.0   0.5+
150911 Q60  0.1-  0.3+    151030 807  0.0   0.1+    151114 G45  0.3-  0.7+
150911 Q62  1.5-  0.2+    151030 807  0.0   0.1-    151114 G45  0.0   0.2+
150911 Q62  0.9-  0.4-    151030 807  0.1+  0.1-    151114 G45  0.2+  0.1+
150911 Q62  0.1+  0.3-    151030 807  0.1+  0.2-    151116 807  0.0   0.0
150912 807  0.3+  0.5+    151031 204  0.4+  0.1-    151116 807  0.0   0.0
150912 807  0.0   0.2+    151031 204  0.3+  0.1+    151116 807  0.0   0.1-
150912 807  0.1-  0.2+    151101 G45  0.5+  0.4-    151116 807  0.1+  0.1-
150912 807  0.1-  0.2+    151101 G45  0.1-  0.5-    151116 807  0.1+  0.1-
150912 807  0.3-  0.0     151101 G45  0.3+  1.0-    151130 F51  0.0   0.0
150912 Q60  0.2+  0.1+    151101 G45  0.2+  0.4-    151130 F51  0.0   0.1-
150912 Q60  0.2-  0.3-    151101 448  0.7+  0.2-    151130 F51  0.5+  0.1-
150912 474  0.0   0.3+    151101 448  0.6-  0.4-    151201 807  0.2+  0.2-
150912 474  0.1+  0.1+    151101 448  0.0   0.2+    151201 807  0.0   0.4+
150912 474  0.0   0.2+    151103 703  1.0+  1.0-    151201 807  0.3-  0.4+
150912 474  0.1+  0.1+    151103 703  0.8+  1.0-    151201 807  0.3+  0.2+
150912 474  0.3+  0.1+    151109 703  0.2+  0.3-    151201 807  0.3+  0.3+
150912 Q60  0.1+  0.0     151109 703  0.2+  0.3+    151202 H21  0.2-  0.3+
150912 Q60  0.2+  0.1-    151109 703  0.1+  0.1+    151202 H21  0.2-  0.4+
150913 807  0.0   0.7+    151109 703  0.5+  1.2+    151202 H21  0.4-  0.2+
150913 807  0.2-  0.4+    151110 926  0.4+  0.0     151202 H21  0.1-  0.1+
150913 807  0.6-  0.1+    151110 H21  0.3+  0.1+    151202 H21  0.2-  0.2+
150913 807  0.6-  0.4-    151110 H21  0.2+  0.1-    151202 H21  0.3-  0.2+
150913 807  0.2+  0.3-    151110 H21  0.3+  0.3-    151202 F51  0.0   0.2+
150913 Q60  0.3+  0.3-    151110 926  0.1+  0.1-    151202 F51  0.0   0.2+
150913 Q60  0.2+  0.1-    151110 H21  0.1-  0.1-    151202 F51  0.1-  0.2+
150913 474  0.2-  0.2-    151110 H21  0.1+  0.1-    151202 F51  0.1-  0.2+
150913 474  0.4+  0.0     151110 H21  0.1-  0.3-    151202 F51  0.1-  0.1+
150913 474  0.0   0.1-    151110 926  0.2+  0.2+    151204 807  0.2+  0.4-
150913 474  0.4+  0.1-    151110 H21  0.1-  0.1-    151204 807  0.2+  0.2-
150918 926  0.2-  0.4-    151110 H21  0.2-  0.1-    151204 807  0.3+  0.0
150918 926  0.1-  0.1-    151110 H21  0.3-  0.4-    151204 807  0.1+  0.0
150918 926  0.1+  0.0     151110 G45  0.3+  0.4+    151204 807  0.1+  0.0
150921 474  0.2+  0.1+    151110 G45  0.3-  0.1+    151206 H21  0.3-  0.1-
150921 474  0.1+  0.1+    151110 G45  0.2-  0.0     151206 H21  0.0   0.0
150921 474  0.2-  0.1+    151110 G45  0.6-  0.5+    151206 H21  0.0   0.2-
150921 474  0.0   0.2+    151111 H21  0.1+  0.2-    151206 H21  0.1-  0.1-
151008 926  0.6-  0.5+    151111 H21  0.1+  0.1-    151206 H21  0.2-  0.0
151008 926  0.0   0.4-    151111 H21  0.2+  0.1-    151206 H21  0.1-  0.4-
151008 926  0.4+  0.5-    151111 H21  0.1+  0.2-    151209 703  0.9-  0.1-
151008 474  0.0   0.0     151111 H21  0.2+  0.0     151209 703  1.7-  1.0-
151008 474  0.1+  0.1+    151111 H21  0.1+  0.1-    151209 703  1.4-  0.2+
151008 474  0.2-  0.1+    151111 H21  0.1+  0.3-    151216 926  0.7+  0.1+
151008 474  0.0   0.1+    151113 807  0.1+  0.3-    151216 926  0.5-  0.2-
151009 926  0.2+  0.2+    151113 807  0.0   0.2-    151216 926  0.0   0.4-
151009 926  0.3+  0.1+    151113 807  0.1+  0.1-    160103 H21  0.1-  0.1-
151009 926  0.4+  0.0     151113 807  0.2+  0.1-    160103 H21  0.1+  0.1-
151015 703  0.7+  0.4+    151113 807  0.0   0.1-    160103 H21  0.1+  0.2-
151015 703  1.2+  0.0     151113 691  0.3-  0.1-    160103 H21  0.3+  0.1-
151015 703  0.7-  0.4-    151113 691  0.3-  0.1-    160103 H21  0.1+  0.1+
151015 703  0.6+  0.9-    151113 691  0.5-  0.1+    160206 H21  0.1+  0.2-
151015 F51  0.0   0.0     151114 807  0.0   0.1+    160206 H21  0.0   0.4+
151015 F51  0.1-  0.1+    151114 807  0.1-  0.1+    160206 H21  0.4-  0.3-
151017 G45  0.2+  0.1+    151114 807  0.2-  0.2+    180125 807  0.0   0.4-
151017 G45  0.3+  0.4+    151114 807  0.1-  0.3+    180125 807  0.1+  0.2-
151017 G45  0.1+  0.6+    151114 807  0.4-  0.2+    180125 807  0.1+  0.2+
151017 G45  0.3-  0.6+    151114 H21  0.2+  0.0     180224 807  0.3+  0.5+
151017 G45  0.1-  0.3+    151114 H21  0.2+  0.3-    180224 807  0.3+  0.0
151021 807  0.0   0.1-    151114 H21  0.1+  0.3-    180224 807  0.5-  0.0

Ephemeris:
2015 RG36                a,e,i = 1.48, 0.27, 9                   q = 1.0814
Date    TT    R. A. (2000) Decl.     Delta      r     Elong.  Phase     V
2018 01 25    13 44 03.0 +03 18 00   0.8647  1.4341   101.5    42.3    22.4
...
2018 02 09    13 55 05.0 +02 37 55   0.7926  1.4912   113.4    37.4    22.2
...
2018 02 17    13 56 27.9 +02 35 53   0.7550  1.5208   120.9    33.9    22.0
...
2018 02 23    13 55 08.2 +02 42 35   0.7289  1.5424   127.1    30.8    21.9
2018 02 24    13 54 42.6 +02 44 19   0.7248  1.5460   128.1    30.2    21.9
2018 02 25    13 54 13.5 +02 46 13   0.7207  1.5495   129.2    29.7    21.8
...
2018 03 03    13 50 03.3 +03 00 43   0.6986  1.5705   136.0    26.0    21.7
...
2018 03 11    13 41 12.7 +03 26 14   0.6759  1.5976   145.7    20.5    21.5
...
2018 03 26    13 16 25.4 +04 15 36   0.6631  1.6455   164.2     9.5    21.1

A. U. Tomatic                (C) Copyright 2018 MPC           M.P.E.C. 2018-D53



More information about the Iaude mailing list